,,,PA_Meas_PMT16A,,PR_Meas_QMR101_102,,RH_Meas_QMH101,,SR_Meas_QMS101,,TA_Meas_QMH101,,GenWind,,GenWind,
date,time,status,PA,status,PR,status,RH,status,SR,status,TA,status,DirAvg,status,SpdAvg,
2009-01-22, 00:00:04,VALID,1000.8,VALID,0,VALID,91.5478,VALID,0,VALID,23.7634,VALID,58,VALID,0.423438,
2009-01-22, 00:01:04,VALID,1000.8,VALID,0,VALID,91.6623,VALID,0,VALID,23.703,VALID,58,VALID,0.6125,
2009-01-22, 00:02:04,VALID,1000.81,VALID,0,VALID,91.8072,VALID,0,VALID,23.6835,VALID,58,VALID,0.648438,
2009-01-22, 00:03:04,VALID,1000.8,VALID,0,VALID,91.7157,VALID,0,VALID,23.6445,VALID,61,VALID,0.763281,
2009-01-22, 00:04:04,VALID,1000.81,VALID,0,VALID,92.2574,VALID,0,VALID,23.6463,VALID,78,VALID,0.878125,
2009-01-22, 00:05:04,VALID,1000.82,VALID,0,VALID,92.1353,VALID,0,VALID,23.6445,VALID,78,VALID,0.898438,
2009-01-22, 00:06:04,VALID,1000.8,VALID,0,VALID,92.0743,VALID,0,VALID,23.625,VALID,78,VALID,0.859766,
2009-01-22, 00:07:04,VALID,1000.81,VALID,0,VALID,92.2574,VALID,0,VALID,23.6445,VALID,78,VALID,0.790234,
2009-01-22, 00:08:04,VALID,1000.77,VALID,0,VALID,92.0666,VALID,0,VALID,23.6445,VALID,77,VALID,0.573438,
2009-01-22, 00:09:04,VALID,1000.75,VALID,0,VALID,92.1811,VALID,0,VALID,23.6445,VALID,70,VALID,0.541797,
2009-01-22, 00:10:04,VALID,1000.73,VALID,0,VALID,92.1429,VALID,0,VALID,23.625,VALID,70,VALID,0.474609,
2009-01-22, 00:11:04,VALID,1000.71,VALID,0,VALID,92.1658,VALID,0,VALID,23.6054,VALID,70,VALID,0.163281,
2009-01-22, 00:12:04,VALID,1000.71,VALID,0,VALID,92.2726,VALID,0,VALID,23.6072,VALID,70,VALID,0.18125,
2009-01-22, 00:13:04,VALID,1000.68,VALID,0,VALID,92.2192,VALID,0,VALID,23.5487,VALID,70,VALID,0,
2009-01-22, 00:14:04,VALID,1000.68,VALID,0,VALID,92.1582,VALID,0,VALID,23.5292,VALID,70,VALID,0,
2009-01-22, 00:15:04,VALID,1000.66,VALID,0,VALID,92.3337,VALID,0,VALID,23.4671,VALID,70,VALID,0,
2009-01-22, 00:16:04,VALID,1000.63,VALID,0,VALID,92.677,VALID,0,VALID,23.4511,VALID,70,VALID,0,
2009-01-22, 00:17:04,VALID,1000.64,VALID,0,VALID,93.0203,VALID,0,VALID,23.4103,VALID,70,VALID,0,
2009-01-22, 00:18:04,VALID,1000.6,VALID,0,VALID,93.1653,VALID,0,VALID,23.3908,VALID,70,VALID,0,
2009-01-22, 00:19:04,VALID,1000.58,VALID,0,VALID,93.356,VALID,0,VALID,23.4121,VALID,72,VALID,0,
2009-01-22, 00:20:04,VALID,1000.58,VALID,0,VALID,93.4628,VALID,0,VALID,23.3908,VALID,72,VALID,0.245703,
2009-01-22, 00:21:04,VALID,1000.55,VALID,0,VALID,93.5163,VALID,0,VALID,23.3908,VALID,105,VALID,0.607422,
2009-01-22, 00:22:04,VALID,1000.58,VALID,0,VALID,93.4171,VALID,0,VALID,23.4103,VALID,105,VALID,0.392578,
2009-01-22, 00:23:04,VALID,1000.5,VALID,0,VALID,93.3484,VALID,0,VALID,23.4298,VALID,114,VALID,0.459766,
2009-01-22, 00:24:04,VALID,1000.52,VALID,0,VALID,93.3484,VALID,0,VALID,23.4298,VALID,114,VALID,0.488672,
2009-01-22, 00:25:04,VALID,1000.52,VALID,0,VALID,93.4476,VALID,0,VALID,23.4511,VALID,109,VALID,0.680078,
2009-01-22, 00:26:04,VALID,1000.49,VALID,0,VALID,93.3408,VALID,0.112286,VALID,23.4493,VALID,122,VALID,0.514844,
2009-01-22, 00:27:04,VALID,1000.48,VALID,0,VALID,93.3255,VALID,0,VALID,23.4493,VALID,110,VALID,0.560938,
2009-01-22, 00:28:04,VALID,1000.51,VALID,0,VALID,93.3103,VALID,0,VALID,23.4298,VALID,110,VALID,0.582031,
2009-01-22, 00:29:04,VALID,1000.5,VALID,0,VALID,93.2645,VALID,0,VALID,23.4298,VALID,110,VALID,0.298438,
2009-01-22, 00:30:04,VALID,1000.49,VALID,0,VALID,93.3255,VALID,0.112286,VALID,23.4493,VALID,109,VALID,0.361719,
2009-01-22, 00:31:04,VALID,1000.47,VALID,0,VALID,93.2874,VALID,0,VALID,23.4298,VALID,109,VALID,0.176172,
2009-01-22, 00:32:04,VALID,1000.46,VALID,0,VALID,93.3408,VALID,0,VALID,23.4103,VALID,109,VALID,0.0863281,
2009-01-22, 00:33:04,VALID,1000.46,VALID,0,VALID,93.3942,VALID,0,VALID,23.4103,VALID,113,VALID,0.446094,
2009-01-22, 00:34:04,VALID,1000.45,VALID,0,VALID,93.4171,VALID,0,VALID,23.4103,VALID,125,VALID,0.167187,
2009-01-22, 00:35:04,VALID,1000.43,VALID,0,VALID,93.3408,VALID,0,VALID,23.3908,VALID,124,VALID,0.110547,
2009-01-22, 00:36:04,VALID,1000.46,VALID,0,VALID,93.2721,VALID,0,VALID,23.3713,VALID,124,VALID,0,
2009-01-22, 00:37:04,VALID,1000.44,VALID,0,VALID,93.2187,VALID,0,VALID,23.3323,VALID,124,VALID,0,
2009-01-22, 00:38:04,VALID,1000.43,VALID,0,VALID,93.2797,VALID,0.112286,VALID,23.3127,VALID,124,VALID,0,
2009-01-22, 00:39:04,VALID,1000.39,VALID,0,VALID,93.3866,VALID,0,VALID,23.3127,VALID,124,VALID,0,
2009-01-22, 00:40:04,VALID,1000.42,VALID,0,VALID,93.501,VALID,0,VALID,23.2932,VALID,124,VALID,0,
2009-01-22, 00:41:04,VALID,1000.37,VALID,0,VALID,93.5544,VALID,0.112286,VALID,23.2932,VALID,124,VALID,0,
2009-01-22, 00:42:04,VALID,1000.35,VALID,0,VALID,93.5773,VALID,0.112286,VALID,23.2932,VALID,124,VALID,0,
2009-01-22, 00:43:04,VALID,1000.32,VALID,0,VALID,93.6688,VALID,0,VALID,23.2542,VALID,124,VALID,0,
2009-01-22, 00:44:04,VALID,1000.31,VALID,0,VALID,93.7299,VALID,0,VALID,23.2737,VALID,124,VALID,0.286719,
2009-01-22, 00:45:04,VALID,1000.28,VALID,0,VALID,93.6383,VALID,0,VALID,23.2542,VALID,124,VALID,0.523438,
2009-01-22, 00:46:04,VALID,1000.27,VALID,0,VALID,93.4018,VALID,0,VALID,23.2542,VALID,124,VALID,0.457812,
2009-01-22, 00:47:04,VALID,1000.22,VALID,0,VALID,93.1195,VALID,0,VALID,23.2737,VALID,124,VALID,0.573828,
2009-01-22, 00:48:04,VALID,1000.2,VALID,0,VALID,92.7991,VALID,0.112286,VALID,23.2932,VALID,144,VALID,0.801953,
2009-01-22, 00:49:04,VALID,1000.2,VALID,0,VALID,92.4557,VALID,0,VALID,23.3323,VALID,141,VALID,0.632422,
2009-01-22, 00:50:04,VALID,1000.17,VALID,0,VALID,92.0285,VALID,0.112286,VALID,23.3518,VALID,142,VALID,0.923047,
2009-01-22, 00:51:04,VALID,1000.13,VALID,0,VALID,91.6928,VALID,0,VALID,23.3713,VALID,140,VALID,0.784766,
2009-01-22, 00:52:04,VALID,1000.14,VALID,0,VALID,91.4868,VALID,0,VALID,23.3713,VALID,137,VALID,0.921094,
2009-01-22, 00:53:04,VALID,1000.14,VALID,0,VALID,91.4257,VALID,0.112286,VALID,23.3713,VALID,138,VALID,0.940234,
2009-01-22, 00:54:04,VALID,1000.1,VALID,0,VALID,91.3418,VALID,0,VALID,23.3518,VALID,138,VALID,1.03711,
2009-01-22, 00:55:05,VALID,1000.11,VALID,0,VALID,91.2731,VALID,0,VALID,23.3518,VALID,139,VALID,1.10938,
2009-01-22, 00:56:05,VALID,1000.08,VALID,0,VALID,91.296,VALID,0.112286,VALID,23.3926,VALID,140,VALID,0.827344,
2009-01-22, 00:57:05,VALID,1000.07,VALID,0,VALID,91.3418,VALID,0.112286,VALID,23.3518,VALID,129,VALID,0.803125,
2009-01-22, 00:58:05,VALID,1000.04,VALID,0,VALID,91.3952,VALID,0,VALID,23.3518,VALID,142,VALID,0.744922,
2009-01-22, 00:59:05,VALID,1000.02,VALID,0,VALID,91.4715,VALID,0,VALID,23.3518,VALID,137,VALID,0.364453,
2009-01-22, 01:00:05,VALID,999.975,VALID,0,VALID,91.5173,VALID,0.112286,VALID,23.3127,VALID,137,VALID,0.244922,
2009-01-22, 01:01:05,VALID,999.999,VALID,0,VALID,91.5554,VALID,0,VALID,23.2932,VALID,137,VALID,0,
2009-01-22, 01:02:05,VALID,999.98,VALID,0,VALID,91.6928,VALID,0,VALID,23.2737,VALID,137,VALID,0.105859,
2009-01-22, 01:03:05,VALID,999.969,VALID,0,VALID,91.8759,VALID,0.112286,VALID,23.2542,VALID,137,VALID,0.0582031,
2009-01-22, 01:04:05,VALID,999.958,VALID,0,VALID,91.9293,VALID,0,VALID,23.2347,VALID,137,VALID,0,
2009-01-22, 01:05:05,VALID,999.928,VALID,0,VALID,92.0209,VALID,0,VALID,23.2169,VALID,137,VALID,0,
2009-01-22, 01:06:05,VALID,999.899,VALID,0,VALID,92.1124,VALID,0,VALID,23.1779,VALID,137,VALID,0,
2009-01-22, 01:07:05,VALID,999.889,VALID,0,VALID,92.1734,VALID,0,VALID,23.1371,VALID,137,VALID,0,
2009-01-22, 01:08:05,VALID,999.844,VALID,0,VALID,92.2497,VALID,0,VALID,23.1389,VALID,137,VALID,0,
2009-01-22, 01:09:05,VALID,999.831,VALID,0,VALID,92.3871,VALID,0,VALID,23.1194,VALID,137,VALID,0,
2009-01-22, 01:10:05,VALID,999.776,VALID,0,VALID,92.3718,VALID,0,VALID,23.1194,VALID,137,VALID,0,
2009-01-22, 01:11:05,VALID,999.749,VALID,0,VALID,92.5397,VALID,0,VALID,23.1194,VALID,137,VALID,0,
2009-01-22, 01:12:05,VALID,999.71,VALID,0,VALID,92.5397,VALID,0,VALID,23.1194,VALID,132,VALID,0.347266,
2009-01-22, 01:13:05,VALID,999.723,VALID,0,VALID,92.5473,VALID,0,VALID,23.1389,VALID,103,VALID,0.282031,
2009-01-22, 01:14:05,VALID,999.685,VALID,0,VALID,92.5397,VALID,0,VALID,23.1194,VALID,71,VALID,0.45625,
2009-01-22, 01:15:05,VALID,999.658,VALID,0,VALID,92.7533,VALID,0,VALID,23.1194,VALID,72,VALID,0.538672,
2009-01-22, 01:16:05,VALID,999.625,VALID,0,VALID,92.5473,VALID,0,VALID,23.1194,VALID,72,VALID,0.454688,
2009-01-22, 01:17:05,VALID,999.619,VALID,0,VALID,92.471,VALID,0,VALID,23.1194,VALID,93,VALID,0.629297,
2009-01-22, 01:18:05,VALID,999.564,VALID,0,VALID,92.2955,VALID,0,VALID,23.1584,VALID,92,VALID,0.772266,
2009-01-22, 01:19:05,VALID,999.543,VALID,0,VALID,92.1887,VALID,0,VALID,23.1779,VALID,87,VALID,0.930078,
2009-01-22, 01:20:05,VALID,999.474,VALID,0,VALID,92.3947,VALID,0.112286,VALID,23.2737,VALID,59,VALID,0.578125,
2009-01-22, 01:21:05,VALID,999.489,VALID,0,VALID,92.3642,VALID,0,VALID,23.3127,VALID,59,VALID,0.380469,
2009-01-22, 01:22:05,VALID,999.479,VALID,0,VALID,92.2192,VALID,0,VALID,23.3518,VALID,50,VALID,0.580078,
2009-01-22, 01:23:05,VALID,999.462,VALID,0,VALID,91.9674,VALID,0.112286,VALID,23.3713,VALID,62,VALID,0.546484,
2009-01-22, 01:24:05,VALID,999.436,VALID,0,VALID,91.9522,VALID,0,VALID,23.3908,VALID,64,VALID,0.651563,
2009-01-22, 01:25:05,VALID,999.4,VALID,0,VALID,91.6088,VALID,0.112286,VALID,23.3908,VALID,65,VALID,0.3625,
2009-01-22, 01:26:05,VALID,999.365,VALID,0,VALID,91.5097,VALID,0,VALID,23.3695,VALID,98,VALID,0.509375,
2009-01-22, 01:27:05,VALID,999.354,VALID,0,VALID,91.4334,VALID,0.112286,VALID,23.4103,VALID,98,VALID,0.242969,
2009-01-22, 01:28:05,VALID,999.336,VALID,0,VALID,91.38,VALID,0.112286,VALID,23.4103,VALID,98,VALID,0.20625,
2009-01-22, 01:29:05,VALID,999.315,VALID,0,VALID,91.3189,VALID,0,VALID,23.4298,VALID,98,VALID,0,
2009-01-22, 01:30:05,VALID,999.299,VALID,0,VALID,91.6088,VALID,0.112286,VALID,23.4298,VALID,98,VALID,0,
2009-01-22, 01:31:05,VALID,999.309,VALID,0,VALID,91.3952,VALID,0,VALID,23.4103,VALID,98,VALID,0.260156,
2009-01-22, 01:32:05,VALID,999.286,VALID,0,VALID,91.4791,VALID,0.112286,VALID,23.4103,VALID,98,VALID,0,
2009-01-22, 01:33:05,VALID,999.273,VALID,0,VALID,91.4181,VALID,0.112286,VALID,23.3713,VALID,98,VALID,0.0015625,
2009-01-22, 01:34:05,VALID,999.247,VALID,0,VALID,91.4486,VALID,0,VALID,23.3323,VALID,98,VALID,0.514453,
2009-01-22, 01:35:05,VALID,999.253,VALID,0,VALID,91.5478,VALID,0.112286,VALID,23.3323,VALID,98,VALID,0.417188,
2009-01-22, 01:36:05,VALID,999.228,VALID,0,VALID,91.5783,VALID,0,VALID,23.3323,VALID,102,VALID,0.329297,
2009-01-22, 01:37:05,VALID,999.228,VALID,0,VALID,91.5631,VALID,0,VALID,23.3127,VALID,110,VALID,0.278125,
2009-01-22, 01:38:05,VALID,999.265,VALID,0,VALID,91.5173,VALID,0.112286,VALID,23.3127,VALID,110,VALID,0,
2009-01-22, 01:39:05,VALID,999.21,VALID,0,VALID,91.6394,VALID,0.112286,VALID,23.2932,VALID,102,VALID,0.602734,
2009-01-22, 01:40:05,VALID,999.188,VALID,0,VALID,91.5783,VALID,0,VALID,23.2932,VALID,99,VALID,0.244922,
2009-01-22, 01:41:05,VALID,999.151,VALID,0,VALID,91.7157,VALID,0.112286,VALID,23.2737,VALID,128,VALID,0.669531,
2009-01-22, 01:42:05,VALID,999.127,VALID,0,VALID,91.7309,VALID,0,VALID,23.2737,VALID,102,VALID,0.475781,
2009-01-22, 01:43:05,VALID,999.09,VALID,0,VALID,91.5249,VALID,0,VALID,23.2542,VALID,70,VALID,0.138672,
2009-01-22, 01:44:05,VALID,999.102,VALID,0,VALID,91.5478,VALID,0,VALID,23.2347,VALID,70,VALID,0,
2009-01-22, 01:45:05,VALID,999.089,VALID,0,VALID,91.6775,VALID,0,VALID,23.2152,VALID,70,VALID,0,
2009-01-22, 01:46:05,VALID,999.09,VALID,0,VALID,91.792,VALID,0,VALID,23.1957,VALID,70,VALID,0,
2009-01-22, 01:47:05,VALID,999.074,VALID,0,VALID,91.8683,VALID,0,VALID,23.1566,VALID,70,VALID,0,
2009-01-22, 01:48:05,VALID,999.084,VALID,0,VALID,92.059,VALID,0,VALID,23.1371,VALID,70,VALID,0,
2009-01-22, 01:49:05,VALID,999.089,VALID,0,VALID,92.2497,VALID,0,VALID,23.1176,VALID,70,VALID,0,
2009-01-22, 01:50:05,VALID,999.066,VALID,0,VALID,92.3566,VALID,0,VALID,23.0804,VALID,70,VALID,0,
2009-01-22, 01:51:05,VALID,999.127,VALID,0,VALID,92.5244,VALID,0,VALID,23.0608,VALID,70,VALID,0,
2009-01-22, 01:52:05,VALID,999.097,VALID,0,VALID,92.677,VALID,0,VALID,23.0413,VALID,70,VALID,0,
2009-01-22, 01:53:05,VALID,999.12,VALID,0,VALID,92.5397,VALID,0,VALID,23.0023,VALID,70,VALID,0,
2009-01-22, 01:54:05,VALID,999.118,VALID,0,VALID,92.6999,VALID,0,VALID,22.9828,VALID,70,VALID,0,
2009-01-22, 01:55:05,VALID,999.1,VALID,0,VALID,92.7151,VALID,0,VALID,22.965,VALID,70,VALID,0,
2009-01-22, 01:56:05,VALID,999.105,VALID,0,VALID,92.7609,VALID,0,VALID,22.9243,VALID,70,VALID,0,
2009-01-22, 01:57:05,VALID,999.081,VALID,0,VALID,92.8983,VALID,0,VALID,22.9065,VALID,70,VALID,0,
2009-01-22, 01:58:05,VALID,999.084,VALID,0,VALID,93.3255,VALID,0,VALID,22.8657,VALID,70,VALID,0,
2009-01-22, 01:59:05,VALID,999.094,VALID,0,VALID,93.5773,VALID,0,VALID,22.8462,VALID,70,VALID,0,
2009-01-22, 02:00:05,VALID,999.077,VALID,0,VALID,93.646,VALID,0,VALID,22.8462,VALID,70,VALID,0,
2009-01-22, 02:01:05,VALID,999.084,VALID,0,VALID,93.9435,VALID,0,VALID,22.8657,VALID,70,VALID,0,
2009-01-22, 02:02:05,VALID,999.111,VALID,0,VALID,94.2029,VALID,0,VALID,22.8657,VALID,70,VALID,0,
2009-01-22, 02:03:05,VALID,999.067,VALID,0,VALID,94.3708,VALID,0,VALID,22.8852,VALID,70,VALID,0,
2009-01-22, 02:04:05,VALID,999.067,VALID,0,VALID,94.2716,VALID,0,VALID,22.9047,VALID,70,VALID,0,
2009-01-22, 02:05:05,VALID,999.079,VALID,0,VALID,94.2029,VALID,0.112286,VALID,22.903,VALID,70,VALID,0,
2009-01-22, 02:06:05,VALID,999.074,VALID,0,VALID,94.1343,VALID,0,VALID,22.9243,VALID,80,VALID,0.680859,
2009-01-22, 02:07:05,VALID,999.062,VALID,0,VALID,94.0351,VALID,0,VALID,22.903,VALID,80,VALID,0.679688,
2009-01-22, 02:08:05,VALID,999.047,VALID,0,VALID,94.1114,VALID,0,VALID,22.903,VALID,81,VALID,0.785547,
2009-01-22, 02:09:05,VALID,999.045,VALID,0,VALID,94.0732,VALID,0.112286,VALID,22.9225,VALID,81,VALID,0.794141,
2009-01-22, 02:10:05,VALID,999.011,VALID,0,VALID,94.0122,VALID,0,VALID,22.9225,VALID,81,VALID,0.834766,
2009-01-22, 02:11:05,VALID,999.028,VALID,0,VALID,93.7375,VALID,0,VALID,22.903,VALID,81,VALID,0.757031,
2009-01-22, 02:12:05,VALID,998.999,VALID,0,VALID,93.7757,VALID,0.112286,VALID,22.8835,VALID,81,VALID,0.728906,
2009-01-22, 02:13:05,VALID,999.001,VALID,0,VALID,93.9283,VALID,0,VALID,22.864,VALID,85,VALID,0.775391,
2009-01-22, 02:14:05,VALID,999.027,VALID,0,VALID,94.0656,VALID,0.112286,VALID,22.8835,VALID,87,VALID,0.747266,
2009-01-22, 02:15:05,VALID,999.023,VALID,0,VALID,94.0656,VALID,0.112286,VALID,22.8835,VALID,89,VALID,0.757031,
2009-01-22, 02:16:05,VALID,999.043,VALID,0,VALID,93.9817,VALID,0,VALID,22.864,VALID,92,VALID,0.585547,
2009-01-22, 02:17:05,VALID,999.045,VALID,0,VALID,93.974,VALID,0.112286,VALID,22.8445,VALID,92,VALID,0.442578,
2009-01-22, 02:18:05,VALID,999.053,VALID,0,VALID,93.9588,VALID,0.112286,VALID,22.825,VALID,92,VALID,0.207813,
2009-01-22, 02:19:05,VALID,999.059,VALID,0,VALID,94.0045,VALID,0,VALID,22.8037,VALID,92,VALID,0,
2009-01-22, 02:20:05,VALID,999.053,VALID,0,VALID,93.913,VALID,0,VALID,22.8072,VALID,92,VALID,0,
2009-01-22, 02:21:05,VALID,999.039,VALID,0,VALID,93.8138,VALID,0,VALID,22.7877,VALID,92,VALID,0,
2009-01-22, 02:22:05,VALID,999.035,VALID,0,VALID,93.9283,VALID,0,VALID,22.7699,VALID,92,VALID,0,
2009-01-22, 02:23:05,VALID,999.065,VALID,0,VALID,94.1343,VALID,0,VALID,22.7682,VALID,92,VALID,0,
2009-01-22, 02:24:05,VALID,999.034,VALID,0,VALID,94.18,VALID,0,VALID,22.7487,VALID,92,VALID,0,
2009-01-22, 02:25:05,VALID,999.018,VALID,0,VALID,94.1571,VALID,0,VALID,22.7292,VALID,92,VALID,0,
2009-01-22, 02:26:05,VALID,999.042,VALID,0,VALID,94.1419,VALID,0,VALID,22.7096,VALID,92,VALID,0,
2009-01-22, 02:27:05,VALID,999.011,VALID,0,VALID,94.2945,VALID,0,VALID,22.7096,VALID,92,VALID,0,
2009-01-22, 02:28:05,VALID,999.007,VALID,0,VALID,94.4623,VALID,0,VALID,22.7096,VALID,92,VALID,0,
2009-01-22, 02:29:05,VALID,998.984,VALID,0,VALID,94.4928,VALID,0,VALID,22.7292,VALID,92,VALID,0,
2009-01-22, 02:30:05,VALID,999.001,VALID,0,VALID,94.6302,VALID,0,VALID,22.7699,VALID,92,VALID,0,
2009-01-22, 02:31:05,VALID,999.001,VALID,0,VALID,94.7065,VALID,0,VALID,22.7682,VALID,92,VALID,0,
2009-01-22, 02:32:05,VALID,999.043,VALID,0,VALID,94.8133,VALID,0,VALID,22.8072,VALID,92,VALID,0,
2009-01-22, 02:33:05,VALID,999.03,VALID,0,VALID,94.8285,VALID,0,VALID,22.8267,VALID,92,VALID,0,
2009-01-22, 02:34:05,VALID,999.033,VALID,0,VALID,94.7599,VALID,0,VALID,22.8055,VALID,92,VALID,0,
2009-01-22, 02:35:05,VALID,998.97,VALID,0,VALID,94.737,VALID,0,VALID,22.8267,VALID,92,VALID,0,
2009-01-22, 02:36:05,VALID,998.966,VALID,0,VALID,94.5997,VALID,0,VALID,22.8072,VALID,92,VALID,0,
2009-01-22, 02:37:05,VALID,998.974,VALID,0,VALID,94.5157,VALID,0,VALID,22.7877,VALID,92,VALID,0,
2009-01-22, 02:38:05,VALID,998.946,VALID,0,VALID,94.4089,VALID,0,VALID,22.7487,VALID,92,VALID,0,
2009-01-22, 02:39:05,VALID,998.965,VALID,0,VALID,94.3555,VALID,0,VALID,22.7292,VALID,92,VALID,0,
2009-01-22, 02:40:05,VALID,998.923,VALID,0,VALID,94.4089,VALID,0,VALID,22.7096,VALID,92,VALID,0,
2009-01-22, 02:41:05,VALID,998.935,VALID,0,VALID,94.5462,VALID,0,VALID,22.7096,VALID,92,VALID,0,
2009-01-22, 02:42:05,VALID,998.927,VALID,0,VALID,94.6531,VALID,0,VALID,22.7292,VALID,92,VALID,0,
2009-01-22, 02:43:05,VALID,998.929,VALID,0,VALID,94.6683,VALID,0,VALID,22.7096,VALID,92,VALID,0,
2009-01-22, 02:44:05,VALID,998.909,VALID,0,VALID,94.7523,VALID,0,VALID,22.7096,VALID,92,VALID,0,
2009-01-22, 02:45:05,VALID,998.868,VALID,0,VALID,94.7294,VALID,0,VALID,22.7292,VALID,92,VALID,0,
2009-01-22, 02:46:05,VALID,998.862,VALID,0,VALID,94.7904,VALID,0,VALID,22.7079,VALID,131,VALID,0,
2009-01-22, 02:47:05,VALID,998.806,VALID,0,VALID,94.8133,VALID,0,VALID,22.7487,VALID,148,VALID,0.658594,
2009-01-22, 02:48:05,VALID,998.815,VALID,0,VALID,94.6683,VALID,0,VALID,22.7487,VALID,152,VALID,0.702734,
2009-01-22, 02:49:05,VALID,998.815,VALID,0,VALID,94.4318,VALID,0,VALID,22.7682,VALID,152,VALID,0.624609,
2009-01-22, 02:50:05,VALID,998.803,VALID,0,VALID,94.1648,VALID,0,VALID,22.786,VALID,151,VALID,0.579297,
2009-01-22, 02:51:05,VALID,998.826,VALID,0,VALID,93.8291,VALID,0,VALID,22.8055,VALID,145,VALID,0.735156,
2009-01-22, 02:52:05,VALID,998.829,VALID,0,VALID,93.5391,VALID,0,VALID,22.8445,VALID,145,VALID,0.669141,
2009-01-22, 02:53:05,VALID,998.869,VALID,0,VALID,93.295,VALID,0,VALID,22.8623,VALID,134,VALID,0.626562,
2009-01-22, 02:54:05,VALID,998.847,VALID,0,VALID,92.9593,VALID,0,VALID,22.8818,VALID,130,VALID,0.741016,
2009-01-22, 02:55:05,VALID,998.863,VALID,0,VALID,92.6846,VALID,0,VALID,22.903,VALID,129,VALID,0.877344,
2009-01-22, 02:56:05,VALID,998.84,VALID,0,VALID,92.5015,VALID,0,VALID,22.942,VALID,130,VALID,0.8125,
2009-01-22, 02:57:05,VALID,998.871,VALID,0,VALID,92.3718,VALID,0,VALID,22.9225,VALID,130,VALID,0.4875,
2009-01-22, 02:58:05,VALID,998.874,VALID,0,VALID,92.3718,VALID,0.112286,VALID,22.9225,VALID,130,VALID,0.224219,
2009-01-22, 02:59:05,VALID,998.888,VALID,0,VALID,92.4023,VALID,0,VALID,22.903,VALID,130,VALID,0.00546875,
2009-01-22, 03:00:05,VALID,998.887,VALID,0,VALID,92.5244,VALID,0,VALID,22.8835,VALID,130,VALID,0,
2009-01-22, 03:01:05,VALID,998.895,VALID,0,VALID,92.6617,VALID,0,VALID,22.8835,VALID,130,VALID,0,
2009-01-22, 03:02:05,VALID,998.893,VALID,0,VALID,92.7762,VALID,0.112286,VALID,22.8427,VALID,130,VALID,0,
2009-01-22, 03:03:05,VALID,998.868,VALID,0,VALID,92.822,VALID,0,VALID,22.825,VALID,130,VALID,0,
2009-01-22, 03:04:05,VALID,998.882,VALID,0,VALID,92.7304,VALID,0.112286,VALID,22.786,VALID,130,VALID,0,
2009-01-22, 03:05:05,VALID,998.859,VALID,0,VALID,93.1271,VALID,0,VALID,22.7877,VALID,130,VALID,0,
2009-01-22, 03:06:05,VALID,998.85,VALID,0,VALID,93.2263,VALID,0,VALID,22.7469,VALID,130,VALID,0,
2009-01-22, 03:07:05,VALID,998.822,VALID,0,VALID,93.1958,VALID,0,VALID,22.7682,VALID,130,VALID,0,
2009-01-22, 03:08:05,VALID,998.807,VALID,0,VALID,93.3408,VALID,0,VALID,22.7682,VALID,130,VALID,0,
2009-01-22, 03:09:05,VALID,998.775,VALID,0,VALID,93.44,VALID,0,VALID,22.7682,VALID,130,VALID,0,
2009-01-22, 03:10:05,VALID,998.794,VALID,0,VALID,93.3331,VALID,0,VALID,22.7877,VALID,150,VALID,0.659375,
2009-01-22, 03:11:05,VALID,998.81,VALID,0,VALID,93.1119,VALID,0,VALID,22.8267,VALID,146,VALID,0.641406,
2009-01-22, 03:12:05,VALID,998.824,VALID,0,VALID,92.9211,VALID,0,VALID,22.8657,VALID,140,VALID,0.524609,
2009-01-22, 03:13:05,VALID,998.849,VALID,0,VALID,92.6007,VALID,0,VALID,22.8852,VALID,122,VALID,0.596875,
2009-01-22, 03:14:05,VALID,998.873,VALID,0,VALID,92.2268,VALID,0,VALID,22.9243,VALID,116,VALID,0.778516,
2009-01-22, 03:15:05,VALID,998.855,VALID,0,VALID,92.0743,VALID,0,VALID,22.9438,VALID,100,VALID,0.8375,
2009-01-22, 03:16:05,VALID,998.837,VALID,0,VALID,91.7767,VALID,0,VALID,22.9828,VALID,84,VALID,0.626953,
2009-01-22, 03:17:05,VALID,998.865,VALID,0,VALID,91.914,VALID,0,VALID,23.0023,VALID,113,VALID,0.732813,
2009-01-22, 03:18:05,VALID,998.833,VALID,0,VALID,91.7462,VALID,0,VALID,23.0201,VALID,143,VALID,0.60625,
2009-01-22, 03:19:05,VALID,998.873,VALID,0,VALID,91.5326,VALID,0,VALID,23.0804,VALID,147,VALID,0.545313,
2009-01-22, 03:20:05,VALID,998.868,VALID,0,VALID,91.4181,VALID,0,VALID,23.1194,VALID,137,VALID,0.678125,
2009-01-22, 03:21:05,VALID,998.891,VALID,0,VALID,91.3342,VALID,0,VALID,23.1194,VALID,146,VALID,1.12109,
2009-01-22, 03:22:05,VALID,998.9,VALID,0,VALID,91.2731,VALID,0,VALID,23.1176,VALID,126,VALID,0.372266,
2009-01-22, 03:23:05,VALID,998.91,VALID,0,VALID,91.6394,VALID,0,VALID,23.1194,VALID,97,VALID,0.421484,
2009-01-22, 03:24:05,VALID,998.957,VALID,0,VALID,91.7996,VALID,0,VALID,23.0999,VALID,97,VALID,0.221875,
2009-01-22, 03:25:05,VALID,998.919,VALID,0,VALID,91.7767,VALID,0,VALID,23.0999,VALID,97,VALID,0.150781,
2009-01-22, 03:26:05,VALID,998.964,VALID,0,VALID,91.6775,VALID,0,VALID,23.0999,VALID,111,VALID,0.371484,
2009-01-22, 03:27:05,VALID,998.99,VALID,0,VALID,91.6699,VALID,0,VALID,23.0804,VALID,113,VALID,0.585156,
2009-01-22, 03:28:05,VALID,999.006,VALID,0,VALID,91.6928,VALID,0,VALID,23.0999,VALID,113,VALID,0.424609,
2009-01-22, 03:29:05,VALID,999.04,VALID,0,VALID,91.6928,VALID,0,VALID,23.0804,VALID,131,VALID,0.421094,
2009-01-22, 03:30:05,VALID,999.062,VALID,0,VALID,91.6928,VALID,0,VALID,23.0786,VALID,132,VALID,0.389453,
2009-01-22, 03:31:05,VALID,999.068,VALID,0,VALID,91.8148,VALID,0,VALID,23.0999,VALID,132,VALID,0.338281,
2009-01-22, 03:32:05,VALID,999.086,VALID,0,VALID,91.8377,VALID,0,VALID,23.0999,VALID,132,VALID,0.133203,
2009-01-22, 03:33:05,VALID,999.092,VALID,0,VALID,91.792,VALID,0,VALID,23.0804,VALID,132,VALID,0.415625,
2009-01-22, 03:34:05,VALID,999.123,VALID,0,VALID,91.8606,VALID,0,VALID,23.0608,VALID,83,VALID,0.489844,
2009-01-22, 03:35:05,VALID,999.132,VALID,0,VALID,91.8225,VALID,0.112286,VALID,23.0786,VALID,82,VALID,0.347266,
2009-01-22, 03:36:05,VALID,999.148,VALID,0,VALID,91.792,VALID,0,VALID,23.0786,VALID,82,VALID,0.351953,
2009-01-22, 03:37:05,VALID,999.155,VALID,0,VALID,91.7691,VALID,0,VALID,23.0981,VALID,82,VALID,0.440625,
2009-01-22, 03:38:05,VALID,999.185,VALID,0,VALID,91.6928,VALID,0,VALID,23.0786,VALID,68,VALID,0.594531,
2009-01-22, 03:39:05,VALID,999.162,VALID,0,VALID,91.708,VALID,0,VALID,23.0981,VALID,52,VALID,0.461719,
2009-01-22, 03:40:05,VALID,999.135,VALID,0,VALID,91.3113,VALID,0,VALID,23.0786,VALID,39,VALID,0.667969,
2009-01-22, 03:41:04,VALID,999.164,VALID,0,VALID,91.3952,VALID,0,VALID,23.0396,VALID,39,VALID,0.663281,
2009-01-22, 03:42:04,VALID,999.114,VALID,0,VALID,91.8301,VALID,0.112286,VALID,23.0201,VALID,39,VALID,0.486719,
2009-01-22, 03:43:04,VALID,999.112,VALID,0,VALID,92.204,VALID,0,VALID,23.0006,VALID,39,VALID,0.464453,
2009-01-22, 03:44:04,VALID,999.166,VALID,0,VALID,92.1506,VALID,0,VALID,22.9811,VALID,38,VALID,0.535156,
2009-01-22, 03:45:04,VALID,999.117,VALID,0,VALID,91.8454,VALID,0,VALID,22.9615,VALID,29,VALID,0.581641,
2009-01-22, 03:46:04,VALID,999.169,VALID,0,VALID,91.8988,VALID,0,VALID,22.903,VALID,29,VALID,0.709375,
2009-01-22, 03:47:04,VALID,999.132,VALID,0,VALID,92.0819,VALID,0,VALID,22.864,VALID,29,VALID,0.524609,
2009-01-22, 03:48:04,VALID,999.147,VALID,0,VALID,92.6083,VALID,0,VALID,22.825,VALID,73,VALID,0.696484,